Location: *
(43.9905°S, 176.4941°W)
Time: 11:48:30
(UTC+00:00)

Cosmos 1703 - Pass Details

Date: 08 December 2019
Orbit: 525 x 539 km, 82.5° (Epoch: 21 January)

Event Time Altitude Azimuth Distance (km) Brightness Sun altitude
Rises 11:12:59 0° 185° (S) 2,732 8.4 -23.1°
Reaches altitude 10° 11:15:12 10° 181° (S) 1,828 7.1 -23.1°
Enters shadow 11:19:07 60° 107° (ESE) 628 3.5 -23.2°
